[[{"header":{"parameterUnit":"m.s-1","parameterCategory":1,"la1":30.2991,"la2":30.254,"lo1":-89.0895,"lo2":-89.0444,"dy":0.0017,"dx":0.0017,"nx":28,"ny":28,"refTime":"2023-08-23T03:00:00:Z","depth":0,"parameterNumber":2,"parameterNumberName":"U-component_of_WINDS"},"data":[0,0,0,0,0,0,0,0,0,0,0,0,0,0,0,0,0,0,0,0,0,0,0,0,0,0,0,0,0,0,0,0,0,0,0,0,0,0,0,0,0,0,0,0,0,0,0,0,0,0,0,0,0,0,0,0,0,0,2.4697,2.4697,0,2.4682,2.4682,2.4681,2.4605,2.4603,2.4601,2.46,2.4584,2.4586,2.4587,0,0,0,0,0,0,0,0,0,0,0,0,0,2.4661,2.4662,2.4697,2.4697,2.4696,2.4682,2.4682,2.4681,2.4605,2.4603,2.4601,2.4599,2.4584,2.4586,2.4587,0,0,0,0,0,0,0,0,0,0,0,0,0,2.4665,2.4663,2.4697,2.4657,2.4653,2.4682,2.4682,2.4681,2.4606,2.4603,2.46,2.4598,2.4583,2.4585,2.4587,2.4654,0,0,2.4593,2.4594,0,0,0,0,0,0,0,0,2.4665,2.4666,2.4663,2.4659,2.4655,2.4642,2.4663,2.4672,2.4606,2.4624,2.4599,2.4596,2.4606,2.4606,2.4609,2.4653,2.4652,2.4593,2.4595,2.4595,2.4596,0,0,0,0,0,0,0,2.4664,2.4666,2.4691,2.4663,2.4658,2.464,2.4637,2.4665,2.463,2.4622,2.4616,2.4616,2.4603,2.4607,2.4608,2.4652,2.4593,2.4595,2.4596,2.4597,2.4752,2.4755,0,0,0,0,0,0,2.467,2.4667,2.4691,2.469,2.4653,2.4643,2.464,2.4649,2.463,2.4624,2.4618,2.4612,2.4605,2.4606,2.4607,2.4685,2.4595,2.4597,2.4598,2.4749,2.4753,2.4756,0,0,0,0,0,0,2.4669,2.4673,2.4692,2.4677,2.4678,2.4646,2.4657,2.465,2.4654,2.4627,2.462,2.4628,2.4603,2.4605,2.4643,2.4683,2.4598,2.46,2.4746,2.475,2.4755,2.484,0,0,0,0,0,0,2.4669,2.4673,2.4697,2.4678,2.4679,2.4728,2.466,2.4652,2.4658,2.465,2.4635,2.4629,2.4601,2.4641,2.4645,2.4684,2.4601,2.4742,2.4748,2.4753,2.4834,2.4847,2.4858,0,0,0,0,0,2.4668,2.4721,2.4699,2.4702,2.4709,2.473,2.4731,2.4697,2.4661,2.4686,2.4669,2.463,2.4679,2.4645,2.465,2.469,2.4739,2.4746,2.4753,2.4828,2.4844,2.4858,0,0,0,0,0,0,2.4745,2.4718,2.4692,2.4742,2.4739,2.4717,2.4747,2.4715,2.4722,2.4714,2.4673,2.467,2.4715,2.4706,2.467,2.4755,2.4702,2.471,2.4758,2.4774,2.4786,2.4787,2.4603,0,0,0,0,0,2.4768,2.4787,2.4763,2.4809,2.4809,2.4779,2.4786,2.4761,2.4756,2.4755,2.474,2.4737,2.4752,2.4762,2.4774,2.4832,2.4829,2.4863,2.4875,2.4885,2.4892,2.4924,2.4939,2.4778,2.4778,2.4778,0,0,2.4815,2.4803,2.4817,2.4824,2.4819,2.484,2.4778,2.4803,2.4819,2.4758,2.4794,2.4784,2.4778,2.4827,2.4848,2.4822,2.4937,2.4894,2.4902,2.4904,2.4933,2.4948,2.4962,2.4783,2.4782,2.4781,0,0,2.4912,2.4905,2.4943,2.494,2.4933,2.4913,2.4923,2.4906,2.4897,2.4933,2.4889,2.4907,2.4933,2.4931,2.4934,2.5034,2.4999,2.504,2.5104,2.5136,2.5148,2.5159,2.5196,2.5209,2.5047,2.5047,2.5047,0,2.4972,2.5002,2.4966,2.4995,2.5,2.4948,2.4987,2.4985,2.4983,2.4988,2.4958,2.4991,2.4983,2.5032,2.5057,2.5061,2.5071,2.504,2.5149,2.516,2.517,2.5204,2.5218,2.5052,2.5051,2.5051,2.505,0,2.5076,2.5099,2.513,2.513,2.5139,2.5173,2.5143,2.5156,2.5131,2.5115,2.5153,2.5142,2.5152,2.5162,2.5137,2.5208,2.5192,2.5157,2.5103,2.5191,2.5222,2.5235,2.5059,2.5057,2.5056,2.5055,0,0,2.5219,2.5201,2.5214,2.5214,2.5204,2.5221,2.5254,2.5264,2.5276,2.5277,2.5304,2.5329,2.5297,2.53,2.5275,2.5303,2.5384,2.5264,2.5263,2.5287,2.5463,2.549,2.5506,2.5362,2.5364,2.5366,2.5464,0,2.5313,2.5366,2.5337,2.5395,2.5416,2.5368,2.5397,2.5395,2.5381,2.5397,2.5382,2.5401,2.5357,2.5358,2.5384,2.5369,2.5419,2.5361,2.5386,2.5388,2.5389,2.5522,2.5549,2.5642,2.5476,2.5478,2.5479,0,2.5428,2.5435,2.5496,2.5485,2.5492,2.5518,2.5526,2.5543,2.554,2.5528,2.5534,2.5503,2.5535,2.5483,2.5527,2.5489,2.5498,2.5493,2.5495,2.5496,2.5438,2.5526,2.5671,2.5685,2.5498,2.5497,2.5496,0,2.5527,2.5552,2.5592,2.5594,2.5581,2.5601,2.5597,2.5592,2.5601,2.5608,2.5614,2.5625,2.5631,2.5641,2.5614,2.5579,2.5663,2.5608,2.5654,2.5655,2.5673,2.5672,2.5821,2.5679,2.5679,2.5679,2.5679,0,2.5634,2.5673,2.5637,2.5661,2.5704,2.5671,2.5715,2.5705,2.5702,2.5724,2.5684,2.5706,2.567,2.5689,2.5669,2.5709,2.5712,2.5704,2.5698,2.5708,2.5709,2.5712,2.5705,2.5683,2.5682,2.5681,2.568,0,2.5751,2.5728,2.5769,2.5755,2.5752,2.5785,2.5773,2.5796,2.5781,2.581,2.5815,2.5791,2.5812,2.5787,2.5805,2.5791,2.5847,2.5831,2.5847,2.5843,2.589,2.5886,2.6047,2.6066,2.5912,2.5914,2.5915,0,2.582,2.585,2.584,2.5852,2.5851,2.5871,2.5881,2.585,2.5861,2.5862,2.5885,2.5903,2.5915,2.595,2.5935,2.5949,2.5933,2.5989,2.5935,2.5944,2.5935,2.5933,2.5937,2.6,2.6001,2.6003,2.6004,0,2.5946,2.5935,2.5949,2.5962,2.5974,2.5982,2.5987,2.6,2.5968,2.5983,2.6004,2.6014,2.6033,2.6051,2.6062,2.6058,2.6026,2.6022,2.6033,2.6042,2.6051,2.6048,2.5877,2.6018,2.6016,2.6015,2.6014,2.6014,2.6042,2.6066,2.6064,2.6083,2.6084,2.609,2.6111,2.61,2.6117,2.613,2.6111,2.6138,2.6137,2.6148,2.6148,2.6169,2.6145,2.6162,2.6166,2.617,2.6178,2.6049,2.6171,2.617,2.617,2.617,2.6169,0,2.6166,2.6163,2.6181,2.619,2.6205,2.6175,2.618,2.6195,2.6219,2.6221,2.6234,2.626,2.6278,2.6265,2.628,2.63,2.6286,2.6305,2.6303,2.6303,2.6198,2.6186,2.6316,2.6316,2.6316,2.6316,2.6316,2.6316,2.6232,2.6273,2.6262,2.6303,2.6299,2.6325,2.6331,2.6337,2.6339,2.6369,2.6384,2.6376,2.6372,2.6388,2.6404,2.6399,2.6407,2.6432,2.6423,2.6324,2.631,2.6296,2.6285,2.6434,2.6434,2.6526,2.6527,2.6527]},{"header":{"parameterUnit":"m.s-1","parameterCategory":1,"la1":30.2991,"la2":30.254,"lo1":-89.0895,"lo2":-89.0444,"dy":0.0017,"dx":0.0017,"nx":28,"ny":28,"refTime":"2023-08-23T03:00:00:Z","depth":0,"parameterNumber":3,"parameterNumberName":"V-component_of_WINDS"},"data":[0,0,0,0,0,0,0,0,0,0,0,0,0,0,0,0,0,0,0,0,0,0,0,0,0,0,0,0,0,0,0,0,0,0,0,0,0,0,0,0,0,0,0,0,0,0,0,0,0,0,0,0,0,0,0,0,0,0,-3.4812,-3.4814,0,-3.4923,-3.4924,-3.4926,-3.4915,-3.4913,-3.4912,-3.491,-3.5021,-3.5025,-3.5029,0,0,0,0,0,0,0,0,0,0,0,0,0,-3.4589,-3.4594,-3.4812,-3.4814,-3.4815,-3.4923,-3.4924,-3.4926,-3.4915,-3.4913,-3.4911,-3.4909,-3.5019,-3.5024,-3.503,0,0,0,0,0,0,0,0,0,0,0,0,0,-3.4692,-3.4595,-3.4812,-3.4823,-3.4825,-3.4923,-3.4925,-3.4926,-3.4916,-3.4913,-3.4911,-3.4908,-3.5017,-3.5024,-3.5031,-3.5124,0,0,-3.5051,-3.5054,0,0,0,0,0,0,0,0,-3.4686,-3.47,-3.482,-3.4822,-3.4825,-3.4903,-3.4886,-3.4993,-3.4916,-3.4881,-3.491,-3.4907,-3.4983,-3.4993,-3.5019,-3.5129,-3.5134,-3.5052,-3.5056,-3.5059,-3.5061,0,0,0,0,0,0,0,-3.4679,-3.4695,-3.4856,-3.4822,-3.4825,-3.4821,-3.4833,-3.4906,-3.4945,-3.4884,-3.4883,-3.4897,-3.4984,-3.5012,-3.5021,-3.5136,-3.5052,-3.5058,-3.5062,-3.5065,-3.5329,-3.5332,0,0,0,0,0,0,-3.467,-3.4689,-3.4852,-3.4859,-3.4748,-3.4828,-3.4841,-3.488,-3.4944,-3.4952,-3.4899,-3.4896,-3.5002,-3.5014,-3.5025,-3.514,-3.5059,-3.5065,-3.5069,-3.5326,-3.533,-3.5333,0,0,0,0,0,0,-3.4665,-3.4684,-3.4848,-3.4774,-3.4795,-3.4834,-3.4879,-3.4884,-3.4912,-3.4956,-3.4962,-3.4921,-3.5,-3.5016,-3.51,-3.5143,-3.5068,-3.5075,-3.5323,-3.5327,-3.5331,-3.5368,0,0,0,0,0,0,-3.4658,-3.4683,-3.4719,-3.4775,-3.4799,-3.4922,-3.4881,-3.4888,-3.4924,-3.4921,-3.4978,-3.4985,-3.5,-3.509,-3.5107,-3.5151,-3.508,-3.5319,-3.5325,-3.533,-3.5364,-3.5374,-3.5382,0,0,0,0,0,-3.4651,-3.4724,-3.4721,-3.474,-3.4845,-3.4924,-3.4937,-3.4954,-3.4928,-3.4964,-3.4993,-3.4983,-3.5136,-3.5099,-3.5117,-3.5165,-3.5316,-3.5323,-3.5329,-3.5359,-3.5372,-3.5382,0,0,0,0,0,0,-3.467,-3.4732,-3.4729,-3.4823,-3.4869,-3.4922,-3.4969,-3.4966,-3.5019,-3.5014,-3.5031,-3.5044,-3.5129,-3.5155,-3.5113,-3.5259,-3.5222,-3.5233,-3.5239,-3.5251,-3.526,-3.5252,-3.5086,0,0,0,0,0,-3.4686,-3.4746,-3.4796,-3.4874,-3.4897,-3.4929,-3.4964,-3.4973,-3.502,-3.5039,-3.5073,-3.5119,-3.5178,-3.5216,-3.5272,-3.5367,-3.538,-3.5409,-3.5419,-3.5426,-3.5435,-3.5488,-3.5502,-3.5354,-3.5354,-3.5354,0,0,-3.4718,-3.4759,-3.4796,-3.4879,-3.4915,-3.4976,-3.4945,-3.5011,-3.5056,-3.5049,-3.5131,-3.5158,-3.521,-3.5301,-3.5342,-3.5325,-3.5479,-3.5434,-3.544,-3.5445,-3.5497,-3.5511,-3.5523,-3.5359,-3.5358,-3.5357,0,0,-3.4809,-3.4845,-3.4915,-3.4953,-3.5009,-3.503,-3.5047,-3.5101,-3.5119,-3.5202,-3.5198,-3.5252,-3.5352,-3.539,-3.5422,-3.5528,-3.5522,-3.5546,-3.5595,-3.5646,-3.5658,-3.5668,-3.5707,-3.572,-3.5555,-3.5555,-3.5555,0,-3.4841,-3.4934,-3.4951,-3.5018,-3.5055,-3.5052,-3.5123,-3.5158,-3.5229,-3.5255,-3.5235,-3.5361,-3.5396,-3.5496,-3.5522,-3.5548,-3.5568,-3.5539,-3.5655,-3.5666,-3.5676,-3.5712,-3.5727,-3.5557,-3.5557,-3.5557,-3.5557,0,-3.4972,-3.5036,-3.5086,-3.5156,-3.5198,-3.5267,-3.5294,-3.5334,-3.534,-3.5363,-3.5447,-3.549,-3.5555,-3.5579,-3.5584,-3.568,-3.5668,-3.5651,-3.5615,-3.5692,-3.5727,-3.5741,-3.5561,-3.556,-3.5559,-3.5559,0,0,-3.5077,-3.5157,-3.5175,-3.5207,-3.5269,-3.5319,-3.5387,-3.5452,-3.5487,-3.5536,-3.5594,-3.568,-3.5665,-3.5702,-3.5711,-3.5757,-3.5839,-3.5735,-3.5737,-3.5753,-3.5948,-3.596,-3.5976,-3.5835,-3.5838,-3.584,-3.5944,0,-3.5174,-3.5296,-3.5314,-3.5421,-3.5481,-3.548,-3.554,-3.5584,-3.5608,-3.5661,-3.5687,-3.5748,-3.5724,-3.5746,-3.5791,-3.582,-3.5879,-3.5812,-3.5889,-3.5892,-3.5876,-3.5995,-3.6007,-3.6103,-3.5958,-3.596,-3.5962,0,-3.5303,-3.5357,-3.5471,-3.5526,-3.5552,-3.5605,-3.5667,-3.5718,-3.5769,-3.5783,-3.5825,-3.5829,-3.5899,-3.586,-3.5958,-3.5912,-3.5945,-3.5964,-3.5968,-3.5976,-3.5931,-3.6006,-3.6134,-3.6148,-3.5983,-3.5981,-3.598,0,-3.5369,-3.547,-3.5552,-3.5579,-3.5646,-3.5683,-3.5713,-3.5761,-3.5799,-3.5852,-3.5877,-3.5938,-3.5971,-3.6017,-3.6038,-3.6007,-3.6134,-3.6097,-3.6148,-3.6148,-3.6175,-3.6173,-3.631,-3.6195,-3.6195,-3.6195,-3.6194,0,-3.5475,-3.5545,-3.5583,-3.5633,-3.5711,-3.5731,-3.5807,-3.5835,-3.5878,-3.5933,-3.5936,-3.5988,-3.6011,-3.6067,-3.6083,-3.6162,-3.6177,-3.619,-3.6193,-3.619,-3.6188,-3.6211,-3.6205,-3.6198,-3.6198,-3.6197,-3.6196,0,-3.5562,-3.559,-3.5679,-3.5735,-3.5751,-3.5806,-3.5854,-3.5902,-3.5926,-3.5996,-3.6013,-3.605,-3.6115,-3.6141,-3.622,-3.6231,-3.6322,-3.632,-3.6305,-3.6307,-3.6356,-3.6352,-3.6514,-3.6536,-3.6406,-3.6407,-3.6408,0,-3.5628,-3.5682,-3.5744,-3.5782,-3.5813,-3.5873,-3.5913,-3.5934,-3.5975,-3.6038,-3.6079,-3.6144,-3.6198,-3.6302,-3.6336,-3.6397,-3.6397,-3.6449,-3.6406,-3.6401,-3.6398,-3.6395,-3.6401,-3.6457,-3.6458,-3.646,-3.646,0,-3.5742,-3.5754,-3.5811,-3.5874,-3.5921,-3.5971,-3.602,-3.605,-3.6079,-3.6125,-3.6193,-3.6235,-3.6317,-3.6382,-3.6445,-3.6474,-3.6473,-3.6474,-3.6489,-3.6486,-3.6476,-3.6483,-3.6328,-3.647,-3.6469,-3.6468,-3.6468,-3.6468,-3.5821,-3.5869,-3.5921,-3.5985,-3.6024,-3.607,-3.6119,-3.6149,-3.6206,-3.6276,-3.6285,-3.6357,-3.6407,-3.6492,-3.6524,-3.6581,-3.6567,-3.6589,-3.6594,-3.66,-3.6604,-3.6467,-3.6593,-3.6592,-3.6592,-3.6592,-3.6592,0,-3.5936,-3.597,-3.6029,-3.6097,-3.6148,-3.6143,-3.6197,-3.6239,-3.6303,-3.635,-3.6404,-3.6482,-3.6545,-3.6584,-3.6648,-3.6686,-3.6687,-3.6702,-3.67,-3.6707,-3.6612,-3.6593,-3.6701,-3.6701,-3.6701,-3.6701,-3.6701,-3.6701,-3.6002,-3.6084,-3.6102,-3.6203,-3.6236,-3.6308,-3.6339,-3.6382,-3.642,-3.6507,-3.656,-3.6586,-3.663,-3.6697,-3.6755,-3.6765,-3.6789,-3.6805,-3.6814,-3.6725,-3.6713,-3.6703,-3.6685,-3.681,-3.681,-3.6904,-3.6905,-3.6905]}]]